Regional Weather Roundup
Issued by NWS

Home | Current Version | Previous Version | Graphics & Text | Print | Product List | Glossary On
Versions: 1 2 3 4 5 6 7 8 9 10 11 12 13 14 15 16 17 18 19 20 21 22 23 24 25 26 27 28 29 30 31 32 33 34 35 36 37 38 39 40 41 42 43 44 45 46 47 48 49 50
000
ASUS43 KIND 031609
RWRIN

WEATHER ROUNDUP FOR INDIANA
NATIONAL WEATHER SERVICE INDIANAPOLIS IN
1200 PM EDT WED JUN 03 2015

NOTE: "FAIR" INDICATES FEW OR NO CLOUDS BELOW 12,000 FEET WITH NO
SIGNIFICANT WEATHER AND/OR OBSTRUCTIONS TO VISIBILITY.

* - STATION DOES NOT REPORT WEATHER SUCH AS PRECIPITATION OR FOG.

+ - STATION NOT QUALITY CONTROLLED BY THE NATIONAL WEATHER SERVICE.
    USE DATA WITH CAUTION...ESPECIALLY DEWPOINT AND RELATIVE
    HUMIDITY OBSERVATIONS.

INZ001>003-010>013-019-020-031700-
NORTHWEST INDIANA

CITY           SKY/WX    TMP DP  RH WIND       PRES   REMARKS
GARY /AIRPORT/ MOSUNNY   70  54  56 SE5       30.08S
KNOX *+        PTSUNNY   66  52  59 SW5       30.09R
LA PORTE +     PTSUNNY   70  54  56 S5        30.10S
MICHIGAN CITY+ PTSUNNY   66  52  59 S5        30.09S
MONTICELLO +   SUNNY     67  56  68 S5        30.08R
RENSSELAER +   PTSUNNY   66  57  72 S3        30.10R
VALPARAISO     MOSUNNY   68  52  56 VRB5      30.09S

$$

LMZ046-743>745-031700-
SOUTHERN LAKE MICHIGAN

STATION/POSITION TIME  TEMP    WIND        PRES    WAVE
                       AIR SEA DIR/SP/G            HT
                 (UTC) (F)     (DEG/KT/KT) (MB)    (FT)
BURNS HARBOR     1600          190/  6/ 10 1019.3S
MICHIGAN CITY    1600   65     170/  6/  9   N/A
5NW MICH CITY    1600   58 59  360/  4/  6   N/A     0

$$

INZ004-005-014>016-021>024-031700-
NORTH CENTRAL INDIANA

CITY           SKY/WX    TMP DP  RH WIND       PRES   REMARKS
ELKHART        PTSUNNY   66  54  63 SE8       30.10S
GOSHEN         PTSUNNY   69  56  62 SE12      30.09S
LOGANSPORT +   PTSUNNY   66  52  59 S5        30.09R
PERU/GRISSOM   PTSUNNY   67  56  67 VRB6      30.08S
ROCHESTER +    MOSUNNY   70  57  64 SE3       30.10R
SOUTH BEND     PTSUNNY   68  51  54 S7        30.10R
WARSAW +       PTSUNNY   64  55  72 E6        30.10R

$$

INZ006>009-017-018-025>027-031700-
NORTHEAST INDIANA

CITY           SKY/WX    TMP DP  RH WIND       PRES   REMARKS
ANGOLA *+      CLOUDY    64  55  72 SE8       30.11S
AUBURN +       PTSUNNY   66  54  63 E3        30.12S
FORT WAYNE     PTSUNNY   65  56  72 SE6       30.11S
HUNTINGTON +   CLOUDY    63  55  74 SE7       30.10S

$$

INZ028-029-035-036-043>045-051>053-031700-
WEST CENTRAL INDIANA

CITY           SKY/WX    TMP DP  RH WIND       PRES   REMARKS
CRAWFORDSVL +  CLOUDY    62  49  64 SE6       30.10R
GREENCASTLE +  CLOUDY    61  50  67 SE6       30.10R
LAFAYETTE      PTSUNNY   66  55  67 VRB6      30.09R
TERRE HAUTE    CLOUDY    64  55  72 VRB6      30.09R

$$

INZ030>032-037>040-046>048-054>057-064-065-031700-
CENTRAL INDIANA

CITY           SKY/WX    TMP DP  RH WIND       PRES   REMARKS
ANDERSON       CLOUDY    64  50  59 CALM      30.10S
CP ATTERBURY + CLOUDY    63  54  72 CALM      30.10S HAZE
FRANKFORT +    CLOUDY    66  56  69 S6        30.11R
GREENWOOD *+   CLOUDY    64  52  63 E3        30.09F
INDIANAPOLIS   PTSUNNY   64  52  64 S3        30.07F
-EAGLE CREEK   CLOUDY    63  53  70 SE5       30.08F
KOKOMO *+      CLOUDY    66  55  68 CALM      30.09R
MARION +       CLOUDY    64  54  68 SE7       30.10S
MT COMFORT *+  PTSUNNY   64  46  52 SE6       30.09F
SHELBYVILLE    CLOUDY    64  54  69 VRB6      30.08F
ZIONSVILLE +   PTSUNNY   64  53  67 SE3       30.09F

$$

INZ033-034-041-042-049-050-058-059-031700-
EAST CENTRAL INDIANA

CITY           SKY/WX    TMP DP  RH WIND       PRES   REMARKS
MUNCIE         CLOUDY    64  55  72 SE7       30.09F

$$

INZ060-061-067>069-081>083-085>088-031700-
SOUTHWEST INDIANA

CITY           SKY/WX    TMP DP  RH WIND       PRES   REMARKS
EVANSVILLE     CLOUDY    66  54  65 NE7       30.07F
HUNTINGBURG *+ CLOUDY    63  54  72 NE5       30.07F
WASHINGTON +   CLOUDY    64  51  62 NE3       30.08R

$$

INZ062-063-066-070>080-084-089>092-031700-
SOUTH CENTRAL AND SOUTHEAST INDIANA

CITY           SKY/WX    TMP DP  RH WIND       PRES   REMARKS
BLOOMINGTON    CLOUDY    60  53  77 E5        30.09S
MADISON *+     CLOUDY    63  52  67 CALM      30.10S
NORTH VERNON + CLOUDY    64  55  72 CALM      30.09F
SEYMOUR +      CLOUDY    64  54  68 E6        30.08S

$$



USA.gov is the U.S. government's official web portal to all federal, state and local government web resources and services.